Weather in Oosterhout

Netherlands     51°39′19″N   4°50′56″E
temp.,
°C
wind,
m/s
gust,
m/s
humid.,
%
clouds,
%
prec.,
mm/h
press.,
hPa
HPBL,
m
26 june, sun
sun2623:00+15sse2397100 4.3 101194
02:00+15sw3896100 4.5 1012355
05:00+14ssw3597100 0.0 1013146
08:00+15sw489193 0.0 1014363
11:00+18ssw5668100 0.0 1016822
14:00+20ssw4554100 0.0 10161539
17:00+22s4648100 0.0 10151979
20:00+18ssw2364100 0.0 101561
27 june, mon
mon2723:00+16wsw1175100 0.0 101511
02:00+15ese1183100 0.3 101512
05:00+15ssw228799 0.0 101521
08:00+16sw2476100 0.0 1015181
11:00+19sw4667100 0.1 1016753
14:00+17nw4669100 0.8 1017471
17:00+21w244964 0.0 10181685
20:00+18wnw46655 0.1 1019444
28 june, tue
tue2823:00+13wsw22745 0.0 102119
02:00+12sw33815 0.0 102142
05:00+11sw34865 0.0 102168
08:00+14sw35730 0.0 1021255
11:00+19sw35522 0.0 1021929
14:00+23ssw35430 0.0 10192128
17:00+24s343954 0.0 10182204
20:00+23ese2255100 0.0 101744
29 june, wed
wed2923:00+18ese346216 0.0 101746
02:00+16s23665 0.0 101623
05:00+15sse336797 0.0 101626
08:00+18s3566100 0.0 1015165
11:00+23ssw3449100 0.0 1016725
14:00+26ssw35384 0.0 10152004
17:00+27s35335 0.0 10142242
20:00+26s1150100 0.0 101320
30 june, thu
thu3023:00+18nne33690 0.0 101427
02:00+16ne33830 0.0 101340
05:00+16e22870 0.0 101223
08:00+20sse11700 0.0 1012137
11:00+26se23495 0.0 1011665
14:00+29ese353827 0.0 10102185
17:00+29wnw3341100 0.0 10081178
20:00+20wnw5690100 2.5 1008216